Simultaneous Nadir Overpasses (SNOs) Predictions

Prediction of SNOs between GOES-16 and TERRA Satellite Orbit:

Table of predicted SNOs for the next 14.0 days since TLE Epoch: 3/7/2025
Index Date Time (GOES-16) GOES-16 Lat,Lon TERRA Lat,Lon Distance(km) Time Diff (sec)
1 03/08/2025 02:39:18 -0.04, -75.23 -0.45, -77.03 206.19 80
2 03/10/2025 02:17:53 -0.04, -75.25 0.53, -72.52 310.33 80
3 03/10/2025 14:37:26 0.04, -75.29 0.49, -77.27 226.62 80
4 03/12/2025 14:21:19 0.04, -75.32 -0.47, -72.75 291.63 80
5 03/13/2025 02:41:01 -0.04, -75.30 -0.50, -77.55 254.78 80
6 03/15/2025 02:19:33 -0.04, -75.35 0.42, -73.01 264.49 80
7 03/15/2025 14:39:08 0.04, -75.39 0.52, -77.79 272.09 80
8 03/17/2025 14:23:00 0.04, -75.44 -0.43, -73.26 248.16 80
9 03/18/2025 02:42:41 -0.04, -75.42 -0.59, -78.04 297.58 80
10 03/20/2025 02:21:13 -0.04, -75.47 0.39, -73.52 222.89 80
11 03/20/2025 14:40:47 0.04, -75.51 0.59, -78.28 313.70 80
